Overview Statistics Trail Chart Weather Telemetry Raw packets
 

This is the latest recevied weather packets stored in our database for station/object N7AWM. If no packets are shown the sender has not sent any weather packets the latest 10 day(s).

<< 2 3 4 5 6 7 8 >>
Time Temp. Humidity Pressure Rain* Wind** Luminosity Snow
1788534224 11.67° C 75% 1010.3 hPa 0 mm - - -
1788533384 11.11° C 78% 1010.2 hPa 0 mm - - -
1788532544 10° C 80% 1010.1 hPa 0 mm - - -
1788531704 9.44° C 81% 1010 hPa 0 mm - - -
1788530864 9.44° C 79% 1010 hPa 0 mm - - -
1788530024 9.44° C 79% 1009.9 hPa 0 mm - - -
1788529184 9.44° C 80% 1009.7 hPa 0 mm - - -
1788528344 9.44° C 81% 1009.6 hPa 0 mm - - -
1788527504 9.44° C 80% 1009.4 hPa 0 mm - - -
1788526664 9.44° C 82% 1009.2 hPa 0 mm - - -
1788525825 9.44° C 82% 1009 hPa 0 mm - - -
1788524998 9.44° C 82% 1008.8 hPa 0 mm - - -
1788524145 10° C 80% 1008.6 hPa 0 mm - - -
1788523305 10.56° C 76% 1008.5 hPa 0 mm - - -
1788522465 10.56° C 72% 1008.3 hPa 0 mm - - -
1788521625 10° C 76% 1008.3 hPa 0 mm - - -
1788520785 10° C 77% 1008.3 hPa 0 mm - - -
1788519945 10° C 79% 1008.1 hPa 0 mm - - -
1788519105 10° C 78% 1008 hPa 0 mm - - -
1788518265 10° C 77% 1007.8 hPa 0 mm - - -
1788517425 9.44° C 78% 1007.6 hPa 0 mm - - -
1788516585 10° C 77% 1007.5 hPa 0 mm - - -
1788515745 10° C 76% 1007.2 hPa 0 mm - - -
1788514908 10° C 75% 1007.2 hPa 0 mm - - -
1788514065 10° C 74% 1007.2 hPa 0 mm - - -

* Rain latest hour (hover to see other rain measurements)
** Current wind speed in m/s (hover to see current wind gust speed)